Atajado, Bolivia

4:18 AM BOT en Enero 24, 2019 (GMT -0400)
Atajado

Tiempo Historia de 85245 - Enero, 2019

Change the Weather History Date:

Sábado, Enero 12, 2019

  Actual Average Record
Temperature  
Temperatura media 75 ° F -  
Temperatura máxima 82 ° F 85 ° F - ()
Temperatura mínima 68 ° F 71 ° F - ()
Cooling Degree Days 10    
Growing Degree Days 25 (Base 50)    
Moisture  
Punto de rocío 69 ° F    
Average Humidity 80    
Maximum Humidity 100    
Minimum Humidity 66    
Precipitación  
Precipitación 0.00 pul - - ()
Presión al nivel del mar  
Presión al nivel del mar 29.91 pul    
Viento  
Velocidad del viento 2 mph ()    
Velocidad máxima del viento 9 mph    
Max Gust Speed -    
Visibilidad 7.4 Millas    
Eventos      
T = Trace of Precipitation, MM = Missing Value Source: Averaged Metar Reports

Daily Weather History Graph

Daily Weather History Graph

Search for Another Location

Airport or City:

Astronomía

Jan. 12, 2019 Salida Puesta
Hora real 5:47 AM BOT 6:54 PM BOT
Crepúsculo civil 5:24 AM BOT 7:17 PM BOT
Crepúsculo náutico 4:55 AM BOT 7:45 PM BOT
Crepúsculo astronómico 4:26 AM BOT 8:14 PM BOT
Luna 11:01 AM BOT (1/12) 11:27 PM BOT (1/12)
Horas de luz 13h 53m
Horas de luz
13h 06m
Creciente, 35% of the Moon is Illuminated
Ene 12
Creciente
Ene 14
Cuarto creciente
Ene 21
Luna llena
Ene 27
Cuarto menguante
Feb 4
Nueva

Hourly Weather History & Observations

Hora (BOT) Temp. Índice de calor Punto de rocío Humedad Presión Visibilidad Wind Dir Velocidad del viento Velocidad de ráfagas Precip Eventos Condiciones
5:00 AM 69 ° F - 68 ° F 94% 29.90 pul 12 mi Sin viento Sin viento - -   Muy nublado
5:00 AM 68.0 ° F - 68.0 ° F 100% 29.92 pul 6.2 mi Sin viento Sin viento - N/A   Muy nublado
6:00 AM 68.0 ° F - 68.0 ° F 100% 29.92 pul 6.2 mi Sin viento Sin viento - N/A   Muy nublado
7:00 AM 69.8 ° F - 68.0 ° F 94% 29.95 pul 6.2 mi Variable 2.3 mph - N/A   Muy nublado
8:00 AM 70 ° F - 68 ° F 91% 29.96 pul 12 mi 2.3 mph - -   Nubes dispersas
8:00 AM 69.8 ° F - 68.0 ° F 94% 29.98 pul 6.2 mi Variable 2.3 mph - N/A   Muy nublado
9:00 AM 73.4 ° F - 68.0 ° F 83% 29.98 pul 6.2 mi Variable 2.3 mph - N/A   Muy nublado
10:00 AM 75.2 ° F - 68.0 ° F 78% 29.98 pul 6.2 mi Variable 2.3 mph - N/A   Muy nublado
11:00 AM 76 ° F - 69 ° F 73% 29.95 pul 12 mi 2.3 mph - -   Muy nublado
11:00 AM 77.0 ° F - 69.8 ° F 78% 29.98 pul 6.2 mi Variable 2.3 mph - N/A   Muy nublado
12:00 PM 78.8 ° F - 69.8 ° F 74% 29.95 pul 6.2 mi NE 2.3 mph - N/A   Muy nublado
1:00 PM 80.6 ° F 83.9 ° F 69.8 ° F 70% 29.92 pul 6.2 mi Norte 3.5 mph - N/A   Muy nublado
2:00 PM 79 ° F - 70 ° F 67% 29.86 pul 12 mi NNO 4.6 mph - -   Parcialmente nublado
2:00 PM 78.8 ° F - 69.8 ° F 74% 29.89 pul 6.2 mi NNO 4.6 mph - N/A   Muy nublado
3:00 PM 80.6 ° F 84.6 ° F 71.6 ° F 74% 29.86 pul 6.2 mi NNO 4.6 mph - N/A   Muy nublado
4:00 PM 82.4 ° F 87.2 ° F 71.6 ° F 70% 29.83 pul 6.2 mi NNO 5.8 mph - N/A   Muy nublado
5:00 PM 82.4 ° F 86.3 ° F 69.8 ° F 66% 29.80 pul 6.2 mi NNO 9.2 mph - N/A   Nubes dispersas
6:00 PM 82.4 ° F 86.3 ° F 69.8 ° F 66% 29.80 pul 6.2 mi NO 8.1 mph - N/A   Nubes dispersas
7:00 PM 78.8 ° F - 69.8 ° F 74% 29.83 pul 6.2 mi NNO 8.1 mph - N/A   Muy nublado